,,,PA_Meas_PMT16A,,PR_Meas_QMR101_102,,RH_Meas_QMH101,,SR_Meas_QMS101,,TA_Meas_QMH101,,GenWind,,GenWind,
date,time,status,PA,status,PR,status,RH,status,SR,status,TA,status,DirAvg,status,SpdAvg,
2011-03-05, 00:00:04,VALID,1003.99,VALID,0,INVALID,163.578,VALID,0.100563,VALID,25.6311,VALID,308,VALID,0.210547,
2011-03-05, 00:01:04,VALID,1003.99,VALID,0,INVALID,163.594,VALID,0.100563,VALID,25.6097,VALID,317,VALID,0.425781,
2011-03-05, 00:02:04,VALID,1003.95,VALID,0,INVALID,163.624,VALID,0,VALID,25.5688,VALID,358,VALID,0.685156,
2011-03-05, 00:03:04,VALID,1003.92,VALID,0,INVALID,163.601,VALID,0.100563,VALID,25.5902,VALID,1,VALID,0.201172,
2011-03-05, 00:04:04,VALID,1003.89,VALID,0,INVALID,163.624,VALID,0.100563,VALID,25.5707,VALID,349,VALID,0.1625,
2011-03-05, 00:05:04,VALID,1003.85,VALID,0,INVALID,163.586,VALID,0.100563,VALID,25.5493,VALID,318,VALID,0.264453,
2011-03-05, 00:06:04,VALID,1003.81,VALID,0,INVALID,163.617,VALID,0.100563,VALID,25.5298,VALID,349,VALID,0.81875,
2011-03-05, 00:07:04,VALID,1003.78,VALID,0,INVALID,163.624,VALID,0.100563,VALID,25.5318,VALID,359,VALID,0.862109,
2011-03-05, 00:08:04,VALID,1003.77,VALID,0,INVALID,163.609,VALID,0.100563,VALID,25.5123,VALID,41,VALID,0.405469,
2011-03-05, 00:09:04,VALID,1003.79,VALID,0,INVALID,163.609,VALID,0.100563,VALID,25.5123,VALID,324,VALID,0.860937,
2011-03-05, 00:10:04,VALID,1003.79,VALID,0,INVALID,163.609,VALID,0.100563,VALID,25.4909,VALID,276,VALID,0.761719,
2011-03-05, 00:11:04,VALID,1003.8,VALID,0,INVALID,163.617,VALID,0.100563,VALID,25.4928,VALID,316,VALID,0.628516,
2011-03-05, 00:12:04,VALID,1003.77,VALID,0,INVALID,163.594,VALID,0,VALID,25.4928,VALID,312,VALID,0.312109,
2011-03-05, 00:13:04,VALID,1003.73,VALID,0,INVALID,163.586,VALID,0,VALID,25.5142,VALID,341,VALID,0.433594,
2011-03-05, 00:14:04,VALID,1003.73,VALID,0,INVALID,163.617,VALID,0,VALID,25.4734,VALID,344,VALID,0.496094,
2011-03-05, 00:15:04,VALID,1003.72,VALID,0,INVALID,163.617,VALID,0,VALID,25.4734,VALID,297,VALID,0.725,
2011-03-05, 00:16:04,VALID,1003.71,VALID,0,INVALID,163.617,VALID,0,VALID,25.4734,VALID,357,VALID,0.339063,
2011-03-05, 00:17:04,VALID,1003.7,VALID,0,INVALID,163.617,VALID,0.100563,VALID,25.4734,VALID,312,VALID,0.885156,
2011-03-05, 00:18:04,VALID,1003.71,VALID,0,INVALID,163.601,VALID,0,VALID,25.4948,VALID,297,VALID,0.232031,
2011-03-05, 00:19:04,VALID,1003.71,VALID,0,INVALID,163.655,VALID,0,VALID,25.4734,VALID,17,VALID,0.675781,
2011-03-05, 00:20:04,VALID,1003.72,VALID,0,INVALID,163.624,VALID,0,VALID,25.4948,VALID,238,VALID,0.269531,
2011-03-05, 00:21:04,VALID,1003.71,VALID,0,INVALID,163.624,VALID,0,VALID,25.4753,VALID,354,VALID,0.886328,
2011-03-05, 00:22:04,VALID,1003.71,VALID,0,INVALID,163.609,VALID,0,VALID,25.4325,VALID,285,VALID,0.369141,
2011-03-05, 00:23:04,VALID,1003.66,VALID,0,INVALID,163.624,VALID,0,VALID,25.4558,VALID,319,VALID,0.639453,
2011-03-05, 00:24:04,VALID,1003.68,VALID,0,INVALID,163.609,VALID,0,VALID,25.4558,VALID,351,VALID,0.664844,
2011-03-05, 00:25:04,VALID,1003.68,VALID,0,INVALID,163.655,VALID,0,VALID,25.4363,VALID,304,VALID,0.165625,
2011-03-05, 00:26:04,VALID,1003.72,VALID,0,INVALID,163.624,VALID,0,VALID,25.4363,VALID,39,VALID,0.436719,
2011-03-05, 00:27:04,VALID,1003.69,VALID,0,INVALID,163.609,VALID,0,VALID,25.4149,VALID,37,VALID,0,
2011-03-05, 00:28:04,VALID,1003.74,VALID,0,INVALID,163.639,VALID,0.100563,VALID,25.3935,VALID,30,VALID,0.396484,
2011-03-05, 00:29:04,VALID,1003.73,VALID,0,INVALID,163.624,VALID,0,VALID,25.3546,VALID,24,VALID,0.326953,
2011-03-05, 00:30:04,VALID,1003.72,VALID,0,INVALID,163.617,VALID,0.100563,VALID,25.3741,VALID,7,VALID,0.354297,
2011-03-05, 00:31:04,VALID,1003.76,VALID,0,INVALID,163.624,VALID,0.100563,VALID,25.3955,VALID,355,VALID,0.753516,
2011-03-05, 00:32:04,VALID,1003.69,VALID,0,INVALID,163.647,VALID,0.100563,VALID,25.3741,VALID,352,VALID,0.73125,
2011-03-05, 00:33:04,VALID,1003.69,VALID,0,INVALID,163.639,VALID,0.100563,VALID,25.3935,VALID,350,VALID,0.764844,
2011-03-05, 00:34:04,VALID,1003.66,VALID,0,INVALID,163.624,VALID,0.100563,VALID,25.3935,VALID,341,VALID,0.609375,
2011-03-05, 00:35:04,VALID,1003.66,VALID,0,INVALID,163.594,VALID,0.100563,VALID,25.3935,VALID,8,VALID,0.492188,
2011-03-05, 00:36:04,VALID,1003.63,VALID,0,INVALID,163.609,VALID,0.100563,VALID,25.3955,VALID,326,VALID,0.0453125,
2011-03-05, 00:37:04,VALID,1003.65,VALID,0,INVALID,163.624,VALID,0.100563,VALID,25.3741,VALID,326,VALID,0,
2011-03-05, 00:38:04,VALID,1003.62,VALID,0,INVALID,163.632,VALID,0.100563,VALID,25.3741,VALID,329,VALID,0.398438,
2011-03-05, 00:39:04,VALID,1003.61,VALID,0,INVALID,163.655,VALID,0.100563,VALID,25.3546,VALID,336,VALID,0.240625,
2011-03-05, 00:40:04,VALID,1003.58,VALID,0,INVALID,163.662,VALID,0.100563,VALID,25.3565,VALID,319,VALID,0.488672,
2011-03-05, 00:41:04,VALID,1003.6,VALID,0,INVALID,163.632,VALID,0.100563,VALID,25.3565,VALID,342,VALID,0.632813,
2011-03-05, 00:42:04,VALID,1003.58,VALID,0,INVALID,163.601,VALID,0.100563,VALID,25.3351,VALID,348,VALID,0.326953,
2011-03-05, 00:43:04,VALID,1003.59,VALID,0,INVALID,163.632,VALID,0.100563,VALID,25.3351,VALID,348,VALID,0.0292969,
2011-03-05, 00:44:04,VALID,1003.58,VALID,0,INVALID,163.609,VALID,0.100563,VALID,25.3176,VALID,348,VALID,0.583203,
2011-03-05, 00:45:04,VALID,1003.58,VALID,0,INVALID,163.624,VALID,0.100563,VALID,25.339,VALID,317,VALID,0.646094,
2011-03-05, 00:46:04,VALID,1003.6,VALID,0,INVALID,163.632,VALID,0.100563,VALID,25.3176,VALID,328,VALID,0.349219,
2011-03-05, 00:47:04,VALID,1003.61,VALID,0,INVALID,163.624,VALID,0.100563,VALID,25.337,VALID,341,VALID,0.808984,
2011-03-05, 00:48:04,VALID,1003.59,VALID,0,INVALID,163.601,VALID,0,VALID,25.2962,VALID,3,VALID,0.592578,
2011-03-05, 00:49:04,VALID,1003.59,VALID,0,INVALID,163.609,VALID,0.100563,VALID,25.2962,VALID,357,VALID,0.502344,
2011-03-05, 00:50:04,VALID,1003.57,VALID,0,INVALID,163.609,VALID,0.100563,VALID,25.337,VALID,352,VALID,0.230469,
2011-03-05, 00:51:04,VALID,1003.55,VALID,0,INVALID,163.647,VALID,0.100563,VALID,25.2962,VALID,343,VALID,0.770312,
2011-03-05, 00:52:04,VALID,1003.58,VALID,0,INVALID,163.624,VALID,0.100563,VALID,25.3176,VALID,344,VALID,0.635938,
2011-03-05, 00:53:04,VALID,1003.58,VALID,0,INVALID,163.624,VALID,0.100563,VALID,25.3157,VALID,348,VALID,0.559375,
2011-03-05, 00:54:04,VALID,1003.58,VALID,0,INVALID,163.617,VALID,0.100563,VALID,25.3157,VALID,351,VALID,0.744141,
2011-03-05, 00:55:04,VALID,1003.56,VALID,0,INVALID,163.609,VALID,0.100563,VALID,25.2962,VALID,3,VALID,0.214453,
2011-03-05, 00:56:04,VALID,1003.55,VALID,0,INVALID,163.639,VALID,0.100563,VALID,25.2962,VALID,3,VALID,0.209375,
2011-03-05, 00:57:04,VALID,1003.53,VALID,0,INVALID,163.617,VALID,0.100563,VALID,25.3176,VALID,298,VALID,0.335938,
2011-03-05, 00:58:04,VALID,1003.54,VALID,0,INVALID,163.639,VALID,0,VALID,25.2786,VALID,354,VALID,0.691797,
2011-03-05, 00:59:04,VALID,1003.53,VALID,0,INVALID,163.639,VALID,0,VALID,25.2981,VALID,3,VALID,0.876562,
2011-03-05, 01:00:04,VALID,1003.52,VALID,0,INVALID,163.655,VALID,0,VALID,25.3176,VALID,342,VALID,0.427734,
2011-03-05, 01:01:04,VALID,1003.5,VALID,0,INVALID,163.624,VALID,0,VALID,25.3176,VALID,348,VALID,0.637109,
2011-03-05, 01:02:04,VALID,1003.46,VALID,0,INVALID,163.617,VALID,0,VALID,25.339,VALID,327,VALID,0.6375,
2011-03-05, 01:03:04,VALID,1003.45,VALID,0,INVALID,163.647,VALID,0,VALID,25.337,VALID,355,VALID,0.639453,
2011-03-05, 01:04:04,VALID,1003.43,VALID,0,INVALID,163.639,VALID,0,VALID,25.337,VALID,349,VALID,0.783594,
2011-03-05, 01:05:04,VALID,1003.44,VALID,0,INVALID,163.632,VALID,0,VALID,25.337,VALID,314,VALID,0.647656,
2011-03-05, 01:06:04,VALID,1003.43,VALID,0,INVALID,163.647,VALID,0,VALID,25.339,VALID,352,VALID,0.773438,
2011-03-05, 01:07:04,VALID,1003.38,VALID,0,INVALID,163.632,VALID,0,VALID,25.3584,VALID,360,VALID,0.827734,
2011-03-05, 01:08:04,VALID,1003.36,VALID,0,INVALID,163.601,VALID,0,VALID,25.337,VALID,338,VALID,0.829297,
2011-03-05, 01:09:04,VALID,1003.35,VALID,0,INVALID,163.639,VALID,0,VALID,25.3565,VALID,349,VALID,0.929297,
2011-03-05, 01:10:04,VALID,1003.32,VALID,0,INVALID,163.624,VALID,0,VALID,25.3779,VALID,348,VALID,0.702734,
2011-03-05, 01:11:04,VALID,1003.31,VALID,0,INVALID,163.655,VALID,0,VALID,25.3584,VALID,350,VALID,0.660937,
2011-03-05, 01:12:04,VALID,1003.27,VALID,0,INVALID,163.647,VALID,0,VALID,25.3565,VALID,350,VALID,1.11328,
2011-03-05, 01:13:04,VALID,1003.26,VALID,0,INVALID,163.601,VALID,0,VALID,25.3779,VALID,11,VALID,0.728125,
2011-03-05, 01:14:04,VALID,1003.27,VALID,0,INVALID,163.639,VALID,0,VALID,25.3779,VALID,355,VALID,0.776953,
2011-03-05, 01:15:04,VALID,1003.28,VALID,0,INVALID,163.632,VALID,0,VALID,25.376,VALID,355,VALID,0.603125,
2011-03-05, 01:16:04,VALID,1003.29,VALID,0,INVALID,163.632,VALID,0,VALID,25.3779,VALID,355,VALID,1.01406,
2011-03-05, 01:17:04,VALID,1003.25,VALID,0,INVALID,163.632,VALID,0,VALID,25.337,VALID,354,VALID,0.811328,
2011-03-05, 01:18:04,VALID,1003.25,VALID,0,INVALID,163.624,VALID,0,VALID,25.337,VALID,348,VALID,0.810156,
2011-03-05, 01:19:04,VALID,1003.23,VALID,0,INVALID,163.617,VALID,0,VALID,25.337,VALID,359,VALID,0.723437,
2011-03-05, 01:20:04,VALID,1003.2,VALID,0,INVALID,163.639,VALID,0,VALID,25.339,VALID,352,VALID,0.635547,
2011-03-05, 01:21:04,VALID,1003.18,VALID,0,INVALID,163.609,VALID,0,VALID,25.339,VALID,353,VALID,0.453906,
2011-03-05, 01:22:04,VALID,1003.17,VALID,0,INVALID,163.647,VALID,0,VALID,25.339,VALID,360,VALID,0.402344,
2011-03-05, 01:23:04,VALID,1003.18,VALID,0,INVALID,163.639,VALID,0,VALID,25.2981,VALID,350,VALID,0.982031,
2011-03-05, 01:24:04,VALID,1003.18,VALID,0,INVALID,163.639,VALID,0,VALID,25.2981,VALID,357,VALID,0.417188,
2011-03-05, 01:25:04,VALID,1003.17,VALID,0,INVALID,163.647,VALID,0,VALID,25.3195,VALID,348,VALID,0.606641,
2011-03-05, 01:26:04,VALID,1003.16,VALID,0,INVALID,163.647,VALID,0,VALID,25.3195,VALID,356,VALID,0.309766,
2011-03-05, 01:27:04,VALID,1003.17,VALID,0,INVALID,163.647,VALID,0,VALID,25.2786,VALID,320,VALID,0.925781,
2011-03-05, 01:28:04,VALID,1003.17,VALID,0,INVALID,163.639,VALID,0.100563,VALID,25.2962,VALID,2,VALID,0.539063,
2011-03-05, 01:29:04,VALID,1003.21,VALID,0,INVALID,163.639,VALID,0.100563,VALID,25.337,VALID,2,VALID,0.344922,
2011-03-05, 01:30:04,VALID,1003.2,VALID,0,INVALID,163.624,VALID,0.100563,VALID,25.3176,VALID,353,VALID,0.374219,
2011-03-05, 01:31:04,VALID,1003.2,VALID,0,INVALID,163.647,VALID,0.100563,VALID,25.2962,VALID,353,VALID,0.148047,
2011-03-05, 01:32:04,VALID,1003.21,VALID,0,INVALID,163.639,VALID,0.100563,VALID,25.2962,VALID,15,VALID,0.635547,
2011-03-05, 01:33:04,VALID,1003.15,VALID,0,INVALID,163.632,VALID,0.100563,VALID,25.3157,VALID,349,VALID,0.446875,
2011-03-05, 01:34:04,VALID,1003.15,VALID,0,INVALID,163.609,VALID,0.100563,VALID,25.3157,VALID,30,VALID,0.2625,
2011-03-05, 01:35:04,VALID,1003.11,VALID,0,INVALID,163.609,VALID,0.100563,VALID,25.3157,VALID,30,VALID,0.158984,
2011-03-05, 01:36:04,VALID,1003.08,VALID,0,INVALID,163.632,VALID,0.100563,VALID,25.3157,VALID,30,VALID,0.0875,
2011-03-05, 01:37:04,VALID,1003.06,VALID,0,INVALID,163.617,VALID,0.100563,VALID,25.3157,VALID,30,VALID,0.173438,
2011-03-05, 01:38:04,VALID,1003.04,VALID,0,INVALID,163.617,VALID,0.100563,VALID,25.3157,VALID,352,VALID,0.877344,
2011-03-05, 01:39:04,VALID,1003.05,VALID,0,INVALID,163.624,VALID,0.100563,VALID,25.3546,VALID,339,VALID,0.736328,
2011-03-05, 01:40:04,VALID,1003.03,VALID,0,INVALID,163.639,VALID,0.100563,VALID,25.3935,VALID,354,VALID,0.75,
2011-03-05, 01:41:04,VALID,1003.04,VALID,0,INVALID,163.624,VALID,0.100563,VALID,25.413,VALID,332,VALID,0.515625,
2011-03-05, 01:42:04,VALID,1003.04,VALID,0,INVALID,163.639,VALID,0.100563,VALID,25.4539,VALID,344,VALID,0.280469,
2011-03-05, 01:43:04,VALID,1003.04,VALID,0,INVALID,163.609,VALID,0,VALID,25.4344,VALID,344,VALID,0.133203,
2011-03-05, 01:44:04,VALID,1003.05,VALID,0,INVALID,163.632,VALID,0,VALID,25.4344,VALID,344,VALID,0.142969,
2011-03-05, 01:45:04,VALID,1003.04,VALID,0,INVALID,163.601,VALID,0,VALID,25.4558,VALID,344,VALID,0.36875,
2011-03-05, 01:46:04,VALID,1003.04,VALID,0,INVALID,163.624,VALID,0,VALID,25.4753,VALID,358,VALID,0.814844,
2011-03-05, 01:47:04,VALID,1003.01,VALID,0,INVALID,163.617,VALID,0,VALID,25.4734,VALID,343,VALID,0.6875,
2011-03-05, 01:48:04,VALID,1003.01,VALID,0,INVALID,163.609,VALID,0,VALID,25.5142,VALID,342,VALID,0.521094,
2011-03-05, 01:49:04,VALID,1003.01,VALID,0,INVALID,163.624,VALID,0,VALID,25.4734,VALID,357,VALID,0.407813,
2011-03-05, 01:50:04,VALID,1003.01,VALID,0,INVALID,163.624,VALID,0,VALID,25.4928,VALID,353,VALID,0.687109,
2011-03-05, 01:51:04,VALID,1002.97,VALID,0,INVALID,163.624,VALID,0,VALID,25.4928,VALID,353,VALID,0.505859,
2011-03-05, 01:52:04,VALID,1002.97,VALID,0,INVALID,163.624,VALID,0,VALID,25.4734,VALID,283,VALID,0.640234,
2011-03-05, 01:53:04,VALID,1002.95,VALID,0,INVALID,163.624,VALID,0,VALID,25.4928,VALID,349,VALID,0.735937,
2011-03-05, 01:54:04,VALID,1002.94,VALID,0,INVALID,163.601,VALID,0,VALID,25.5142,VALID,360,VALID,0.674609,
2011-03-05, 01:55:04,VALID,1002.94,VALID,0,INVALID,163.609,VALID,0,VALID,25.5337,VALID,354,VALID,0.434766,
2011-03-05, 01:56:04,VALID,1002.94,VALID,0,INVALID,163.624,VALID,0,VALID,25.5123,VALID,358,VALID,0.886328,
2011-03-05, 01:57:04,VALID,1002.94,VALID,0,INVALID,163.624,VALID,0,VALID,25.5337,VALID,342,VALID,0.998438,
2011-03-05, 01:58:04,VALID,1002.96,VALID,0,INVALID,163.617,VALID,0,VALID,25.5532,VALID,344,VALID,0.7375,
2011-03-05, 01:59:04,VALID,1002.95,VALID,0,INVALID,163.609,VALID,0,VALID,25.5727,VALID,352,VALID,0.667969,
2011-03-05, 02:00:04,VALID,1002.96,VALID,0,INVALID,163.624,VALID,0.100563,VALID,25.5318,VALID,344,VALID,1.14766,
2011-03-05, 02:01:04,VALID,1002.95,VALID,0,INVALID,163.647,VALID,0,VALID,25.5318,VALID,347,VALID,0.627734,
2011-03-05, 02:02:04,VALID,1002.92,VALID,0,INVALID,163.639,VALID,0,VALID,25.5123,VALID,351,VALID,0.609766,
2011-03-05, 02:03:04,VALID,1002.91,VALID,0,INVALID,163.601,VALID,0,VALID,25.5123,VALID,349,VALID,0.834766,
2011-03-05, 02:04:04,VALID,1002.89,VALID,0,INVALID,163.632,VALID,0,VALID,25.4928,VALID,351,VALID,0.885547,
2011-03-05, 02:05:04,VALID,1002.9,VALID,0,INVALID,163.624,VALID,0,VALID,25.4734,VALID,360,VALID,1.27695,
2011-03-05, 02:06:04,VALID,1002.86,VALID,0,INVALID,163.647,VALID,0,VALID,25.4948,VALID,345,VALID,0.829297,
2011-03-05, 02:07:04,VALID,1002.83,VALID,0,INVALID,163.624,VALID,0,VALID,25.4539,VALID,348,VALID,0.913281,
2011-03-05, 02:08:04,VALID,1002.84,VALID,0,INVALID,163.617,VALID,0,VALID,25.4558,VALID,345,VALID,0.308203,
2011-03-05, 02:09:04,VALID,1002.83,VALID,0,INVALID,163.624,VALID,0,VALID,25.4344,VALID,332,VALID,0.63125,
2011-03-05, 02:10:04,VALID,1002.82,VALID,0,INVALID,163.624,VALID,0,VALID,25.4344,VALID,346,VALID,0.517187,
2011-03-05, 02:11:04,VALID,1002.78,VALID,0,INVALID,163.624,VALID,0,VALID,25.4558,VALID,347,VALID,0.623047,
2011-03-05, 02:12:04,VALID,1002.78,VALID,0,INVALID,163.624,VALID,0,VALID,25.4344,VALID,346,VALID,0.808594,
2011-03-05, 02:13:04,VALID,1002.81,VALID,0,INVALID,163.617,VALID,0.100563,VALID,25.4344,VALID,351,VALID,0.684766,
2011-03-05, 02:14:04,VALID,1002.81,VALID,0,INVALID,163.617,VALID,0,VALID,25.4539,VALID,328,VALID,0.792578,
2011-03-05, 02:15:04,VALID,1002.81,VALID,0,INVALID,163.617,VALID,0.100563,VALID,25.4325,VALID,336,VALID,0.685156,
2011-03-05, 02:16:04,VALID,1002.83,VALID,0,INVALID,163.617,VALID,0.100563,VALID,25.4714,VALID,1,VALID,0.611719,
2011-03-05, 02:17:04,VALID,1002.85,VALID,0,INVALID,163.617,VALID,0.100563,VALID,25.4928,VALID,6,VALID,0.917969,
2011-03-05, 02:18:04,VALID,1002.83,VALID,0,INVALID,163.617,VALID,0.100563,VALID,25.4909,VALID,349,VALID,1.19219,
2011-03-05, 02:19:04,VALID,1002.81,VALID,0,INVALID,163.609,VALID,0,VALID,25.5104,VALID,341,VALID,0.276172,
2011-03-05, 02:20:04,VALID,1002.83,VALID,0,INVALID,163.639,VALID,0.100563,VALID,25.5298,VALID,343,VALID,0.334766,
2011-03-05, 02:21:04,VALID,1002.82,VALID,0,INVALID,163.594,VALID,0.100563,VALID,25.5493,VALID,344,VALID,1.27734,
2011-03-05, 02:22:04,VALID,1002.81,VALID,0,INVALID,163.624,VALID,0.100563,VALID,25.6097,VALID,342,VALID,0.817187,
2011-03-05, 02:23:04,VALID,1002.78,VALID,0,INVALID,163.594,VALID,0.100563,VALID,25.6292,VALID,360,VALID,1.28164,
2011-03-05, 02:24:04,VALID,1002.82,VALID,0,INVALID,163.586,VALID,0.100563,VALID,25.6662,VALID,347,VALID,0.554688,
2011-03-05, 02:25:04,VALID,1002.78,VALID,0,INVALID,163.632,VALID,0.100563,VALID,25.6662,VALID,347,VALID,0.0183594,
2011-03-05, 02:26:04,VALID,1002.77,VALID,0,INVALID,163.594,VALID,0.100563,VALID,25.6662,VALID,3,VALID,0.933594,
2011-03-05, 02:27:04,VALID,1002.78,VALID,0,INVALID,163.624,VALID,0.100563,VALID,25.6467,VALID,351,VALID,0.785156,
2011-03-05, 02:28:04,VALID,1002.77,VALID,0,INVALID,163.601,VALID,0,VALID,25.6681,VALID,352,VALID,0.544922,
2011-03-05, 02:29:04,VALID,1002.76,VALID,0,INVALID,163.578,VALID,0,VALID,25.67,VALID,348,VALID,0.641797,
2011-03-05, 02:30:04,VALID,1002.74,VALID,0,INVALID,163.586,VALID,0,VALID,25.6097,VALID,1,VALID,0.868359,
2011-03-05, 02:31:04,VALID,1002.73,VALID,0,INVALID,163.624,VALID,0,VALID,25.5883,VALID,325,VALID,0.945313,
2011-03-05, 02:32:04,VALID,1002.71,VALID,0,INVALID,163.617,VALID,0,VALID,25.6097,VALID,344,VALID,0.903125,
2011-03-05, 02:33:04,VALID,1002.69,VALID,0,INVALID,163.609,VALID,0,VALID,25.6097,VALID,348,VALID,0.633594,
2011-03-05, 02:34:04,VALID,1002.69,VALID,0,INVALID,163.617,VALID,0,VALID,25.6311,VALID,350,VALID,1.18125,
2011-03-05, 02:35:04,VALID,1002.69,VALID,0,INVALID,163.594,VALID,0,VALID,25.633,VALID,18,VALID,1.39453,
2011-03-05, 02:36:04,VALID,1002.65,VALID,0,INVALID,163.609,VALID,0,VALID,25.6311,VALID,350,VALID,1.05313,
2011-03-05, 02:37:04,VALID,1002.64,VALID,0,INVALID,163.586,VALID,0,VALID,25.6525,VALID,346,VALID,0.724219,
2011-03-05, 02:38:04,VALID,1002.62,VALID,0,INVALID,163.586,VALID,0,VALID,25.6311,VALID,347,VALID,1.23477,
2011-03-05, 02:39:04,VALID,1002.65,VALID,0,INVALID,163.594,VALID,0,VALID,25.6292,VALID,332,VALID,0.542969,
2011-03-05, 02:40:04,VALID,1002.64,VALID,0,INVALID,163.601,VALID,0,VALID,25.6506,VALID,342,VALID,0.775781,
2011-03-05, 02:41:04,VALID,1002.59,VALID,0,INVALID,163.578,VALID,0,VALID,25.6311,VALID,281,VALID,0.666797,
2011-03-05, 02:42:04,VALID,1002.62,VALID,0,INVALID,163.609,VALID,0,VALID,25.5902,VALID,322,VALID,0.45625,
2011-03-05, 02:43:04,VALID,1002.63,VALID,0,INVALID,163.609,VALID,0,VALID,25.5902,VALID,352,VALID,0.306641,
2011-03-05, 02:44:04,VALID,1002.63,VALID,0,INVALID,163.601,VALID,0,VALID,25.5707,VALID,4,VALID,0.633203,
2011-03-05, 02:45:04,VALID,1002.63,VALID,0,INVALID,163.563,VALID,0,VALID,25.6116,VALID,349,VALID,1.14805,
2011-03-05, 02:46:04,VALID,1002.66,VALID,0,INVALID,163.563,VALID,0,VALID,25.5921,VALID,254,VALID,0.430469,
2011-03-05, 02:47:04,VALID,1002.64,VALID,0,INVALID,163.601,VALID,0,VALID,25.5921,VALID,355,VALID,0.266797,
2011-03-05, 02:48:04,VALID,1002.69,VALID,0,INVALID,163.594,VALID,0,VALID,25.5707,VALID,337,VALID,0.776953,
2011-03-05, 02:49:04,VALID,1002.66,VALID,0,INVALID,163.601,VALID,0,VALID,25.5513,VALID,321,VALID,0.612891,
2011-03-05, 02:50:04,VALID,1002.65,VALID,0,INVALID,163.609,VALID,0,VALID,25.5532,VALID,340,VALID,0.287891,
2011-03-05, 02:51:04,VALID,1002.68,VALID,0,INVALID,163.601,VALID,0,VALID,25.5532,VALID,350,VALID,0.160547,
2011-03-05, 02:52:04,VALID,1002.67,VALID,0,INVALID,163.609,VALID,0,VALID,25.5123,VALID,350,VALID,0.352344,
2011-03-05, 02:53:04,VALID,1002.67,VALID,0,INVALID,163.609,VALID,0,VALID,25.4948,VALID,350,VALID,0.285547,
2011-03-05, 02:54:04,VALID,1002.68,VALID,0,INVALID,163.617,VALID,0,VALID,25.4734,VALID,346,VALID,0.427734,
2011-03-05, 02:55:04,VALID,1002.67,VALID,0,INVALID,163.639,VALID,0,VALID,25.4558,VALID,249,VALID,0.29375,
2011-03-05, 02:56:04,VALID,1002.66,VALID,0,INVALID,163.632,VALID,0,VALID,25.4558,VALID,341,VALID,0.582812,
2011-03-05, 02:57:04,VALID,1002.67,VALID,0,INVALID,163.632,VALID,0,VALID,25.4169,VALID,345,VALID,0.586328,
2011-03-05, 02:58:04,VALID,1002.66,VALID,0,INVALID,163.609,VALID,0,VALID,25.4149,VALID,341,VALID,1.06367,
2011-03-05, 02:59:04,VALID,1002.63,VALID,0,INVALID,163.639,VALID,0,VALID,25.4363,VALID,360,VALID,0.667578,
2011-03-05, 03:00:04,VALID,1002.62,VALID,0,INVALID,163.609,VALID,0,VALID,25.4149,VALID,349,VALID,0.873828,
2011-03-05, 03:01:04,VALID,1002.62,VALID,0,INVALID,163.601,VALID,0,VALID,25.376,VALID,352,VALID,0.922656,
2011-03-05, 03:02:04,VALID,1002.64,VALID,0,INVALID,163.617,VALID,0,VALID,25.3974,VALID,357,VALID,0.798437,
2011-03-05, 03:03:04,VALID,1002.65,VALID,0,INVALID,163.601,VALID,0,VALID,25.376,VALID,323,VALID,0.3625,
2011-03-05, 03:04:04,VALID,1002.67,VALID,0,INVALID,163.632,VALID,0,VALID,25.376,VALID,356,VALID,1.22187,
2011-03-05, 03:05:04,VALID,1002.67,VALID,0,INVALID,163.609,VALID,0,VALID,25.4344,VALID,340,VALID,0.492188,
2011-03-05, 03:06:04,VALID,1002.64,VALID,0,INVALID,163.617,VALID,0,VALID,25.4539,VALID,333,VALID,0.891016,
2011-03-05, 03:07:04,VALID,1002.58,VALID,0,INVALID,163.609,VALID,0,VALID,25.4928,VALID,359,VALID,0.467969,
2011-03-05, 03:08:04,VALID,1002.58,VALID,0,INVALID,163.601,VALID,0,VALID,25.5532,VALID,18,VALID,0.537109,
2011-03-05, 03:09:04,VALID,1002.55,VALID,0,INVALID,163.586,VALID,0,VALID,25.5532,VALID,350,VALID,1.04961,
2011-03-05, 03:10:04,VALID,1002.55,VALID,0,INVALID,163.594,VALID,0,VALID,25.6116,VALID,327,VALID,1.01992,
2011-03-05, 03:11:04,VALID,1002.57,VALID,0,INVALID,163.609,VALID,0,VALID,25.6116,VALID,293,VALID,0.3375,
2011-03-05, 03:12:04,VALID,1002.54,VALID,0,INVALID,163.601,VALID,0,VALID,25.6097,VALID,348,VALID,1.975,
2011-03-05, 03:13:04,VALID,1002.51,VALID,0,INVALID,163.586,VALID,0.100563,VALID,25.6681,VALID,356,VALID,1.25977,
2011-03-05, 03:14:04,VALID,1002.5,VALID,0,INVALID,163.609,VALID,0.100563,VALID,25.6876,VALID,353,VALID,0.923828,
2011-03-05, 03:15:04,VALID,1002.49,VALID,0,INVALID,163.594,VALID,0.100563,VALID,25.7071,VALID,15,VALID,0.716406,
2011-03-05, 03:16:04,VALID,1002.48,VALID,0,INVALID,163.594,VALID,0,VALID,25.6876,VALID,350,VALID,0.693359,
2011-03-05, 03:17:04,VALID,1002.43,VALID,0,INVALID,163.586,VALID,0.100563,VALID,25.6681,VALID,359,VALID,0.217187,
2011-03-05, 03:18:04,VALID,1002.41,VALID,0,INVALID,163.586,VALID,0,VALID,25.6681,VALID,289,VALID,0.462891,
2011-03-05, 03:19:04,VALID,1002.39,VALID,0,INVALID,163.571,VALID,0,VALID,25.67,VALID,324,VALID,0.535547,
2011-03-05, 03:20:04,VALID,1002.38,VALID,0,INVALID,163.601,VALID,0,VALID,25.6486,VALID,321,VALID,0.435547,
2011-03-05, 03:21:04,VALID,1002.37,VALID,0,INVALID,163.609,VALID,0,VALID,25.6097,VALID,327,VALID,0.457031,
2011-03-05, 03:22:04,VALID,1002.37,VALID,0,INVALID,163.594,VALID,0,VALID,25.6097,VALID,325,VALID,0.571484,
2011-03-05, 03:23:04,VALID,1002.33,VALID,0,INVALID,163.578,VALID,0,VALID,25.5902,VALID,3,VALID,0.615625,
2011-03-05, 03:24:04,VALID,1002.34,VALID,0,INVALID,163.586,VALID,0.100563,VALID,25.5902,VALID,345,VALID,0.841797,
2011-03-05, 03:25:04,VALID,1002.34,VALID,0,INVALID,163.617,VALID,0.100563,VALID,25.5902,VALID,300,VALID,0.659375,
2011-03-05, 03:26:04,VALID,1002.34,VALID,0,INVALID,163.601,VALID,0.100563,VALID,25.5707,VALID,286,VALID,0.426953,
2011-03-05, 03:27:04,VALID,1002.33,VALID,0,INVALID,163.571,VALID,0.100563,VALID,25.5902,VALID,343,VALID,0.512891,
2011-03-05, 03:28:04,VALID,1002.33,VALID,0,INVALID,163.578,VALID,0,VALID,25.5727,VALID,347,VALID,0.890625,
2011-03-05, 03:29:04,VALID,1002.31,VALID,0,INVALID,163.594,VALID,0,VALID,25.5318,VALID,349,VALID,0.833203,
2011-03-05, 03:30:04,VALID,1002.28,VALID,0,INVALID,163.594,VALID,0,VALID,25.5337,VALID,8,VALID,0.351953,
2011-03-05, 03:31:04,VALID,1002.29,VALID,0,INVALID,163.578,VALID,0,VALID,25.5337,VALID,357,VALID,0.830469,
2011-03-05, 03:32:04,VALID,1002.3,VALID,0,INVALID,163.601,VALID,0,VALID,25.5142,VALID,333,VALID,0.264062,
2011-03-05, 03:33:04,VALID,1002.31,VALID,0,INVALID,163.609,VALID,0,VALID,25.4948,VALID,352,VALID,0.740234,
2011-03-05, 03:34:04,VALID,1002.28,VALID,0,INVALID,163.624,VALID,0,VALID,25.4558,VALID,4,VALID,0.631641,
2011-03-05, 03:35:04,VALID,1002.29,VALID,0,INVALID,163.632,VALID,0,VALID,25.4344,VALID,2,VALID,0.613672,